Overview Statistics Trail Chart Weather Telemetry Raw packets
 

This is the latest recevied weather packets stored in our database for station/object VK4TW-13. If no packets are shown the sender has not sent any weather packets the latest 10 day(s).

<< 17 18 19 20 21 22 23 >>
Time Temp. Humidity Pressure Rain* Wind** Luminosity Snow
1788418297 25.56° C 100% 1018.6 hPa 0 mm - - -
1788417097 26.11° C 98% 1018.5 hPa 0 mm - - -
1788416496 26.11° C 96% 1018.4 hPa 0 mm - - -
1788415895 26.67° C 97% 1018.4 hPa 0 mm - - -
1788415294 26.67° C 98% 1018.4 hPa 0 mm - - -
1788414693 26.67° C 97% 1018.4 hPa 0 mm - - -
1788413490 27.22° C 100% 1018.5 hPa 0 mm - - -
1788412889 27.22° C 99% 1018.5 hPa 0 mm - - -
1788412288 27.22° C 98% 1018.6 hPa 0 mm - - -
1788411687 27.22° C 96% 1018.6 hPa 0 mm - - -
1788411086 27.22° C 95% 1018.7 hPa 0 mm - - -
1788410485 27.22° C 93% 1018.8 hPa 0 mm - - -
1788410263 27.22° C 94% 1018.8 hPa 0 mm - - -
1788410082 27.22° C 94% 1019 hPa 0 mm - - -
1788409481 27.22° C 94% 1018.9 hPa 0 mm - - -
1788409113 27.22° C 95% 1019 hPa 0 mm - - -
1788408884 27.22° C 97% 1019.1 hPa 0 mm - - -
1788408703 27.22° C 96% 1019.1 hPa 0 mm - - -
1788408319 27.78° C 94% 1019.1 hPa 0 mm - - -
1788407718 27.78° C 93% 1019.3 hPa 0 mm - - -
1788407537 27.78° C 91% 1019.3 hPa 0 mm - - -
1788407326 27.78° C 94% 1019.3 hPa 0 mm - - -
1788406725 27.78° C 96% 1019.5 hPa 0 mm - - -
1788406124 28.33° C 98% 1019.5 hPa 0 mm - - -
1788405834 28.33° C 100% 1019.7 hPa 0 mm - - -

* Rain since midnight (hover to see other rain measurements)
** Current wind speed in m/s (hover to see current wind gust speed)